Date String (YYYY-MM-DD hh:mm:ss) UTC,Instrument flags,absolute air pressure of the measurement (hPa),sample flow rate (lpm),inlet stack bypass flow (lpm),air temperature of the measurement (°C),ambient temperature measured by the external sensor (°C),aerosol sample conditioner tube jacket temperature (°C),OPC LED temperature (°C),internal box temperature (°C),relative humidity of the measurement (%),span deviation,mass concentration of particles derived from Lorenz-Mie calculation of OPC scattering (μg/m³),mass concentration of particles derived from Lorenz-Mie calculation of OPC scattering (μg/m³),mass concentration of particles derived from Lorenz-Mie calculation of OPC scattering (μg/m³)
DateTimeUTC,F1_M11,P_M11,Q1_M11,Q2_M11,T1_M11,T2_M11,T3_M11,T4_M11,T5_M11,U1_M11,ZSPAN_M11,X0_M11,X2_M11,X1_M11
2023-07-29 17:00:00,SystemResetWarning,0838.7,5.00,000.00,030.0,027.6,000.0,038.2,031.0,33.8,-002.6,0015.87,0006.17,0005.13
2023-07-29 17:01:00,SystemResetWarning,0838.7,5.00,000.00,030.1,027.8,000.0,038.2,031.1,34.0,-002.2,0015.31,0006.11,0005.11
2023-07-29 17:02:00,SystemResetWarning,0838.7,5.00,000.00,030.1,028.0,000.0,038.2,031.1,33.7,-001.8,0015.40,0006.12,0005.10
2023-07-29 17:03:00,SystemResetWarning,0838.7,4.98,000.00,030.1,027.2,000.0,038.1,031.1,32.7,-001.8,0015.14,0006.03,0005.04
2023-07-29 17:04:00,SystemResetWarning,0838.6,5.00,000.00,030.1,025.7,000.0,038.0,030.8,32.8,-002.0,0014.28,0006.02,0005.00
2023-07-29 17:05:00,SystemResetWarning,0838.6,5.02,000.00,030.0,025.1,000.0,037.9,030.7,32.8,-002.1,0014.21,0006.03,0005.01
2023-07-29 17:06:00,SystemResetWarning,0838.6,5.00,000.00,029.9,025.2,000.0,038.0,030.5,32.6,-002.3,0014.61,0006.09,0005.03
2023-07-29 17:07:00,SystemResetWarning,0838.6,5.00,000.00,029.8,025.6,000.0,038.0,030.5,32.8,-002.3,0014.64,0006.05,0005.03
2023-07-29 17:08:00,SystemResetWarning,0838.6,5.00,000.00,029.8,026.1,000.0,038.0,030.6,33.8,-002.4,0014.71,0006.02,0005.01
2023-07-29 17:09:00,SystemResetWarning,0838.6,5.00,000.00,029.7,026.5,000.0,038.0,030.7,33.8,-002.6,0015.89,0006.07,0004.99
2023-07-29 17:10:00,SystemResetWarning,0838.6,5.00,000.00,029.7,026.9,000.0,038.0,030.8,33.5,-002.8,0015.42,0006.11,0004.98
2023-07-29 17:11:00,SystemResetWarning,0838.6,5.00,000.00,029.7,027.2,000.0,038.0,030.8,33.6,-003.0,0014.13,0006.14,0005.00
2023-07-29 17:12:00,SystemResetWarning,0838.6,5.00,000.00,029.8,027.5,000.0,038.1,030.9,33.1,-003.2,0014.23,0006.16,0005.01
2023-07-29 17:13:00,SystemResetWarning,0838.6,4.99,000.00,029.8,027.7,000.0,038.1,030.9,33.7,-003.1,0014.63,0006.19,0005.03
2023-07-29 17:14:00,SystemResetWarning,0838.6,4.99,000.00,029.8,027.8,000.0,038.1,031.0,33.3,-003.0,0015.41,0006.24,0005.08
2023-07-29 17:15:00,SystemResetWarning,0838.6,5.00,000.00,029.8,026.7,000.0,037.9,030.9,33.3,-003.0,0015.48,0006.26,0005.11
2023-07-29 17:16:00,SystemResetWarning,0838.6,5.00,000.00,029.7,025.4,000.0,037.8,030.7,33.1,-002.9,0015.64,0006.30,0005.12
2023-07-29 17:17:00,SystemResetWarning,0838.6,5.01,000.00,029.7,025.1,000.0,037.8,030.5,33.3,-003.0,0015.56,0006.34,0005.15
2023-07-29 17:18:00,SystemResetWarning,0838.6,5.01,000.00,029.5,025.3,000.0,037.8,030.4,33.7,-002.9,0015.21,0006.41,0005.17
2023-07-29 17:19:00,SystemResetWarning,0838.6,4.99,000.00,029.5,025.7,000.0,037.8,030.4,34.1,-002.5,0015.29,0006.43,0005.17
2023-07-29 17:20:00,SystemResetWarning,0838.6,4.99,000.00,029.5,026.2,000.0,037.8,030.5,34.1,-002.0,0014.36,0006.41,0005.17
2023-07-29 17:21:00,SystemResetWarning,0838.6,5.01,000.00,029.4,026.6,000.0,037.8,030.6,33.6,-001.6,0013.63,0006.34,0005.14
2023-07-29 17:22:00,SystemResetWarning,0838.6,5.01,000.00,029.5,027.0,000.0,037.8,030.7,33.3,-000.9,0013.97,0006.30,0005.12
2023-07-29 17:23:00,SystemResetWarning,0838.6,4.99,000.00,029.5,027.3,000.0,037.8,030.8,32.7,-000.8,0014.78,0006.28,0005.10
2023-07-29 17:24:00,SystemResetWarning,0838.6,5.00,000.00,029.5,027.5,000.0,037.8,030.8,32.8,-001.3,0014.19,0006.26,0005.09
2023-07-29 17:25:00,SystemResetWarning,0838.6,5.00,000.00,029.5,027.7,000.0,037.9,030.9,34.0,-001.3,0013.51,0006.27,0005.08
2023-07-29 17:26:00,SystemResetWarning,0838.6,5.00,000.00,029.5,027.9,000.0,037.9,031.0,34.5,-001.7,0013.70,0006.25,0005.08
2023-07-29 17:27:00,SystemResetWarning,0838.6,4.97,000.00,029.6,027.2,000.0,037.8,030.9,35.2,-002.4,0013.93,0006.23,0005.09
2023-07-29 17:28:00,SystemResetWarning,0838.6,5.04,000.00,029.6,025.6,000.0,037.7,030.7,34.5,-002.5,0013.82,0006.19,0005.09
2023-07-29 17:29:00,SystemResetWarning,0838.6,4.97,000.00,029.7,025.1,000.0,037.6,030.6,33.5,-002.7,0013.77,0006.17,0005.08
2023-07-29 17:30:00,SystemResetWarning,0838.4,5.03,000.00,029.7,025.2,000.0,037.6,030.4,33.4,-002.8,0013.73,0006.17,0005.07
2023-07-29 17:31:00,SystemResetWarning,0838.4,4.99,000.00,029.6,025.6,000.0,037.7,030.5,33.6,-003.0,0013.42,0006.15,0005.05
2023-07-29 17:32:00,SystemResetWarning,0838.4,4.99,000.00,029.6,026.1,000.0,037.7,030.5,34.0,-003.8,0013.40,0006.17,0005.07
2023-07-29 17:33:00,SystemResetWarning,0838.4,5.00,000.00,029.7,026.5,000.0,037.8,030.6,34.1,-003.8,0013.11,0006.15,0005.09
2023-07-29 17:34:00,SystemResetWarning,0838.5,5.01,000.00,029.7,026.8,000.0,037.8,030.7,34.6,-003.8,0012.03,0006.13,0005.11
2023-07-29 17:35:00,SystemResetWarning,0838.5,5.00,000.00,029.7,027.2,000.0,037.8,030.8,34.5,-003.5,0011.97,0006.13,0005.12
2023-07-29 17:36:00,SystemResetWarning,0838.5,5.01,000.00,029.8,027.4,000.0,037.9,030.8,33.9,-003.5,0012.10,0006.16,0005.13
2023-07-29 17:37:00,SystemResetWarning,0838.5,4.99,000.00,029.8,027.7,000.0,037.9,030.9,33.4,-003.0,0011.73,0006.17,0005.15
2023-07-29 17:38:00,SystemResetWarning,0838.6,4.99,000.00,029.8,027.9,000.0,037.9,031.0,32.7,-002.7,0011.40,0006.19,0005.16
2023-07-29 17:39:00,SystemResetWarning,0838.5,5.00,000.00,029.9,027.6,000.0,037.9,031.0,32.8,-002.6,0011.01,0006.17,0005.15
2023-07-29 17:40:00,SystemResetWarning,0838.6,5.00,000.00,029.9,026.1,000.0,037.8,030.8,33.4,-002.4,0011.44,0006.17,0005.17
2023-07-29 17:41:00,SystemResetWarning,0838.6,5.00,000.00,029.8,025.2,000.0,037.7,030.6,34.3,-002.3,0011.63,0006.17,0005.17
2023-07-29 17:42:00,SystemResetWarning,0838.5,5.02,000.00,029.7,025.2,000.0,037.7,030.4,33.8,-002.5,0011.97,0006.13,0005.18
2023-07-29 17:43:00,SystemResetWarning,0838.4,4.97,000.00,029.6,025.6,000.0,037.8,030.4,35.0,-002.1,0012.07,0006.11,0005.16
2023-07-29 17:44:00,SystemResetWarning,0838.5,5.04,000.00,029.7,026.0,000.0,037.8,030.5,34.7,-002.1,0012.00,0006.13,0005.17
2023-07-29 17:45:00,SystemResetWarning,0838.5,4.97,000.00,029.8,026.4,000.0,037.8,030.7,34.4,-002.1,0012.18,0006.16,0005.16
2023-07-29 17:46:00,SystemResetWarning,0838.5,5.03,000.00,029.9,026.8,000.0,037.9,030.8,34.7,-002.1,0012.28,0006.18,0005.15
2023-07-29 17:47:00,SystemResetWarning,0838.5,4.98,000.00,030.0,027.1,000.0,037.9,030.9,33.3,-002.3,0012.28,0006.21,0005.16
2023-07-29 17:48:00,SystemResetWarning,0838.5,5.01,000.00,030.1,027.4,000.0,037.9,031.0,33.0,-002.5,0012.32,0006.21,0005.16
2023-07-29 17:49:00,SystemResetWarning,0838.6,5.02,000.00,030.1,027.7,000.0,038.0,031.0,33.5,-002.4,0012.25,0006.18,0005.14
2023-07-29 17:50:00,SystemResetWarning,0838.5,4.99,000.00,030.2,027.9,000.0,038.0,031.1,33.2,-002.2,0012.37,0006.17,0005.15
2023-07-29 17:51:00,SystemResetWarning,0838.5,4.99,000.00,030.2,027.2,000.0,038.0,031.0,33.4,-002.0,0012.32,0006.19,0005.15
2023-07-29 17:52:00,SystemResetWarning,0838.4,5.01,000.00,030.2,025.7,000.0,037.9,030.8,33.7,-002.3,0012.23,0006.24,0005.16
2023-07-29 17:53:00,SystemResetWarning,0838.4,5.00,000.00,030.1,025.1,000.0,037.9,030.6,34.4,-002.6,0012.27,0006.29,0005.17
2023-07-29 17:54:00,SystemResetWarning,0838.3,5.01,000.00,030.0,025.3,000.0,037.9,030.4,34.7,-002.1,0012.10,0006.33,0005.18
2023-07-29 17:55:00,SystemResetWarning,0838.3,4.99,000.00,029.9,025.7,000.0,038.0,030.4,35.4,-001.8,0012.40,0006.36,0005.17
2023-07-29 17:56:00,SystemResetWarning,0838.3,5.03,000.00,030.0,026.1,000.0,038.0,030.6,35.3,-001.8,0012.95,0006.30,0005.15
2023-07-29 17:57:00,SystemResetWarning,0838.3,4.99,000.00,030.3,026.5,000.0,038.0,030.9,34.3,-001.7,0012.80,0006.29,0005.15
2023-07-29 17:58:00,SystemResetWarning,0838.4,4.99,000.00,030.5,026.9,000.0,038.1,031.0,32.7,-000.1,0012.62,0006.19,0005.13
2023-07-29 17:59:00,SystemResetWarning,0838.5,4.99,000.00,030.6,027.2,000.0,038.1,031.0,32.8,0000.0,0012.84,0006.17,0005.13
